#timestamp,LO_Frequency,Hit,StdDev 
1516593615.6,286047086.8,N
1516593635.4,286047086.7,N
1516593655.2,286047087.3,N
1516593675.1,286047086.5,N
1516593676.0,286047086.5,Y
1516593695.8,286047004.3,P
1516593715.7,286047003.9,N
1516593735.5,286047004.4,N
1516593755.3,286047003.8,N
1516593775.1,286047003.8,N
1516593795.9,286047003.8,N
1516593815.7,286047004.2,N
1516593835.5,286047003.1,N
1516593855.4,286047003.3,N
1516593875.2,286047006.0,N
1516593895.0,286047003.4,N
1516593895.9,286047003.4,N
1516593915.8,286047005.5,N
1516593935.6,286047005.7,N
1516593955.4,286047005.7,N
1516593975.3,286047006.0,N
1516593995.1,286047005.3,N
1516593996.0,286047005.3,N
1516594015.8,286047005.2,N
1516594035.7,286047005.1,N
1516594055.5,286047005.8,N
1516594075.3,286047004.7,N
1516594095.1,286047005.0,N
1516594115.9,286047004.7,N
1516594135.7,286047005.3,N
1516594155.5,286047004.9,N
1516594175.4,286047004.6,N
1516594195.2,286047007.6,N
1516594215.0,286047005.0,N
1516594215.9,286047005.0,N
1516594235.8,286047007.1,Y
1516594255.6,286047002.6,P
1516594275.4,286047002.1,N
1516594295.3,286047002.7,N
1516594315.1,286047001.6,N
1516594316.0,286047001.6,N
1516594335.8,286047001.8,N
1516594355.7,286047001.3,N
1516594375.5,286047001.7,N
1516594395.3,286047004.1,Y
1516594415.2,286047002.7,P
1516594435.9,286047002.6,P
1516594455.7,286046999.7,N
1516594475.6,286047001.9,N
1516594495.4,286047001.5,N
1516594515.2,286047001.7,N
1516594535.0,286047001.6,N
1516594536.0,286047001.6,N
1516594555.8,286047004.0,Y
1516594575.6,286047002.5,P
1516594595.5,286047002.0,P
1516594615.3,286047002.6,P
1516594635.1,286047001.7,Y
1516594655.9,286047000.0,P
1516594675.7,286046999.8,N
1516594695.5,286047000.0,N
1516594715.4,286047002.4,N
1516594735.2,286047002.6,N
1516594755.0,286047002.5,N
1516594755.9,286047002.5,N
1516594775.7,286047002.4,N
1516594795.6,286047001.6,N
1516594815.4,286047001.8,N
1516594835.2,286047001.7,N
1516594855.1,286047002.1,N
1516594856.0,286047002.1,N
1516594875.8,286047004.4,Y
1516594895.6,286047002.6,P
1516594915.5,286047002.6,P
1516594935.3,286047002.7,P
1516594955.1,286047002.0,Y
1516594975.9,286047000.8,P
1516594995.7,286047000.7,N
1516595015.5,286046998.1,N
1516595035.4,286047000.6,N
1516595055.2,286047000.4,N
1516595075.0,286046999.9,N
1516595075.9,286046999.9,N
1516595095.8,286047000.6,N
1516595115.6,286047000.1,N
1516595135.4,286046999.8,N
1516595155.3,286047002.4,N
1516595175.1,286047002.8,N
1516595176.0,286047002.8,N
1516595195.8,286047002.0,N
1516595215.7,286047001.5,N
1516595235.5,286047001.4,N
1516595255.3,286047001.8,N
1516595275.2,286047004.1,Y
1516595295.9,286047001.5,P
1516595315.7,286047001.3,P
1516595335.5,286047001.8,P
1516595355.4,286047004.1,Y
1516595375.2,286047001.6,P
1516595395.0,286047004.3,P
1516595395.9,286047004.3,P
1516595415.8,286047001.4,N
1516595435.6,286047004.1,N
1516595455.4,286047003.8,N
1516595475.3,286047003.2,N
1516595495.1,286047003.8,Y
1516595515.8,286047002.8,P
1516595535.7,286047002.3,P
1516595555.5,286047002.5,P
1516595575.3,286047002.8,Y
1516595595.2,286046998.2,P
1516595615.0,286046998.7,N
1516595615.9,286046998.7,N
1516595635.7,286046998.7,N
1516595655.6,286046999.3,N
1516595675.4,286046998.3,N
1516595695.2,286046998.6,N
1516595715.1,286046998.5,N
1516595716.0,286046998.5,N
1516595735.8,286046998.8,N
1516595755.6,286046998.1,N
1516595775.5,286047001.2,N
1516595795.3,286047001.2,N
1516595815.1,286046998.3,N
1516595835.9,286047000.8,N
1516595855.7,286047000.7,N
1516595875.5,286047001.0,N
1516595895.3,286046998.2,N
1516595915.2,286047000.9,N
1516595935.0,286047000.9,N
1516595935.9,286047000.9,N
1516595955.7,286047000.5,N
1516595975.6,286047001.2,N
1516595995.4,286047000.4,N
1516596015.2,286047000.5,N
1516596035.1,286047000.4,N
1516596036.0,286047000.4,N
1516596055.8,286047000.7,N
1516596075.6,286046999.9,N
1516596095.5,286047000.1,N
1516596115.3,286047000.1,N
1516596135.1,286047000.4,N
1516596155.9,286046999.7,N
1516596175.7,286046999.7,N
1516596195.5,286047002.7,N
1516596215.3,286046999.9,N
1516596235.2,286047002.8,N
1516596255.0,286047002.7,N
1516596255.9,286047002.7,N
1516596275.7,286047002.4,N
1516596295.6,286047000.1,N
1516596315.4,286047002.3,N
1516596335.2,286047002.5,N
1516596355.1,286047002.5,N
1516596356.0,286047002.5,N
1516596375.8,286047002.8,N
1516596395.6,286047002.0,N
1516596415.5,286047002.1,N
1516596435.3,286047001.6,N
1516596455.1,286047002.6,N
1516596475.9,286047001.6,N
1516596495.7,286047001.8,N
1516596515.5,286047001.8,N
1516596535.4,286047002.0,N
1516596555.2,286047001.4,N
1516596575.0,286047001.3,N
1516596575.9,286047001.3,N
1516596595.8,286047001.3,N
1516596615.6,286047001.6,N
1516596635.4,286047004.0,Y
1516596655.3,286047002.4,P
1516596675.1,286047002.3,P
1516596676.0,286047002.3,P
1516596695.8,286046999.7,N
1516596715.6,286047002.6,N
1516596735.5,286047002.2,N
1516596755.3,286047002.5,N
1516596775.1,286047002.7,N
1516596795.9,286047002.2,N
1516596815.7,286047002.2,N
1516596835.5,286047002.1,N
1516596855.4,286047002.7,Y
1516596875.2,286047000.8,P
1516596895.0,286047000.7,N
1516596895.9,286047000.7,N
1516596915.8,286047001.0,N
1516596935.6,286046998.2,Y
1516596955.4,286046998.4,P
1516596975.3,286046998.3,N
1516596995.1,286046998.7,N
1516597015.8,286046999.3,N
1516597035.7,286046998.6,N
1516597055.5,286046998.6,N
1516597075.3,286046998.2,N
1516597095.2,286046998.7,N
1516597115.9,286046998.1,N
1516597135.7,286047001.1,N
1516597155.5,286047001.2,N
1516597175.4,286046998.3,N
1516597195.2,286047001.2,N
